Mount Ida, AR

9:40 PM CST on December 16, 2017 (GMT -0600)
Mount Ida

Weather History for KMWT - July, 2013

Change the Weather History Date:

Saturday, July 20, 2013

  Actual Average (KHOT) Record (KHOT)
Temperature  
Mean Temperature 80 °F -  
Max Temperature 91 °F 96 °F 109 °F (2012)
Min Temperature 69 °F 70 °F 58 °F (1984)
Cooling Degree Days 15    
Growing Degree Days 30 (Base 50)    
Moisture  
Dew Point 70 °F    
Average Humidity 91    
Maximum Humidity 100    
Minimum Humidity 45    
Precipitation  
Precipitation 0.33 in - - ()
Sea Level Pressure  
Sea Level Pressure 29.94 in    
Wind  
Wind Speed 1 mph (West)    
Max Wind Speed 8 mph    
Max Gust Speed -    
Visibility 4 miles    
Events Fog , Rain    
Averages and records for this station are not official NWS values.
T = Trace of Precipitation, MM = Missing Value Source: NWS Daily Summary

Daily Weather History Graph

Daily Weather History Graph

Search for Another Location

Airport or City:

Trip Planner

Search our weather history database for the weather conditions in past years. The results will help you decide how hot, cold, wet, or windy it might be!

Date:

Astronomy

Jul. 20, 2013 Rise Set
Actual Time 6:16 AM CDT 8:24 PM CDT
Civil Twilight 5:47 AM CDT 8:53 PM CDT
Nautical Twilight 5:13 AM CDT 9:27 PM CDT
Astronomical Twilight 4:35 AM CDT 10:05 PM CDT
Moon 6:29 PM CDT (7/20) 3:56 AM CDT (7/20)
Length of Visible Light 15h 05m
Length of Day
14h 08m
Waxing Gibbous, 94% of the Moon is Illuminated
Jul 20
Waxing Gibbous
Jul 22
Full
Jul 29
Last Quarter
Aug 6
New
Aug 14
First Quarter

Hourly Weather History & Observations

Time (CDT) Temp. Heat Index Dew Point Humidity Pressure Visibility Wind Dir Wind Speed Gust Speed Precip Events Conditions
12:00 AM 69.8 °F - 69.8 °F 100% 29.97 in 5.0 mi Calm Calm - N/A   Scattered Clouds
12:26 AM 69.8 °F - 69.8 °F 100% 29.97 in 1.8 mi Calm Calm - N/A   Clear
12:34 AM 69.8 °F - 69.8 °F 100% 29.97 in 3.0 mi Calm Calm - N/A   Clear
12:53 AM 69.1 °F - 69.1 °F 100% 29.94 in 2.5 mi Calm Calm - N/A   Partly Cloudy
1:04 AM 69.8 °F - 69.8 °F 100% 29.98 in 1.8 mi Calm Calm - N/A   Mostly Cloudy
1:14 AM 69.8 °F - 69.8 °F 100% 29.98 in 0.5 mi Calm Calm - N/A Fog Fog
1:40 AM 69.8 °F - 69.8 °F 100% 29.97 in 1.5 mi Calm Calm - N/A   Overcast
1:50 AM 69.1 °F - 69.1 °F 100% 29.94 in 3.0 mi Calm Calm - N/A   Overcast
2:04 AM 69.8 °F - 69.8 °F 100% 29.96 in 1.8 mi Calm Calm - N/A   Overcast
2:27 AM 69.8 °F - 68.0 °F 94% 29.96 in 0.8 mi Calm Calm - N/A   Mist
2:46 AM 69.8 °F - 68.0 °F 94% 29.97 in 0.2 mi WNW 3.5 mph - N/A Fog Fog
2:53 AM 69.1 °F - 68.0 °F 96% 29.94 in 0.2 mi WNW 3.5 mph - N/A Fog Fog
3:08 AM 69.8 °F - 68.0 °F 94% 29.97 in 0.5 mi Calm Calm - N/A Fog Fog
3:15 AM 69.8 °F - 68.0 °F 94% 29.97 in 1.0 mi Calm Calm - N/A   Mist
3:27 AM 69.8 °F - 68.0 °F 94% 29.97 in 2.5 mi Calm Calm - N/A   Overcast
3:37 AM 69.8 °F - 68.0 °F 94% 29.97 in 3.0 mi Calm Calm - N/A   Overcast
3:53 AM 69.1 °F - 68.0 °F 96% 29.94 in 5.0 mi Calm Calm - N/A   Overcast
4:53 AM 69.1 °F - 68.0 °F 96% 29.94 in 4.0 mi Calm Calm - N/A   Mostly Cloudy
5:08 AM 69.8 °F - 68.0 °F 94% 29.97 in 4.0 mi Calm Calm - N/A   Mostly Cloudy
5:42 AM 69.8 °F - 68.0 °F 94% 29.97 in 2.0 mi Calm Calm - N/A   Mostly Cloudy
5:53 AM 69.1 °F - 68.0 °F 96% 29.95 in 2.5 mi Calm Calm - N/A   Mostly Cloudy
6:11 AM 69.8 °F - 68.0 °F 94% 29.97 in 4.0 mi Calm Calm - N/A   Mostly Cloudy
6:28 AM 69.8 °F - 68.0 °F 94% 29.98 in 1.8 mi Calm Calm - N/A   Mostly Cloudy
6:39 AM 69.8 °F - 68.0 °F 94% 29.97 in 3.0 mi Calm Calm - N/A   Mostly Cloudy
6:46 AM 69.8 °F - 68.0 °F 94% 29.97 in 1.8 mi Calm Calm - N/A   Overcast
6:53 AM 69.1 °F - 68.0 °F 96% 29.95 in 1.2 mi Calm Calm - N/A   Mostly Cloudy
7:00 AM 69.8 °F - 69.8 °F 100% 29.97 in 3.0 mi Calm Calm - N/A   Mostly Cloudy
7:53 AM 72.0 °F - 71.1 °F 97% 29.96 in 8.0 mi Calm Calm - N/A   Mostly Cloudy
8:53 AM 75.0 °F - 72.0 °F 90% 29.95 in 10.0 mi Calm Calm - N/A   Mostly Cloudy
9:53 AM 79.0 °F - 72.0 °F 79% 29.95 in 10.0 mi Variable 4.6 mph - N/A   Clear
10:53 AM 82.0 °F 86.3 °F 71.1 °F 69% 29.95 in 10.0 mi Calm Calm - N/A   Scattered Clouds
11:53 AM 84.9 °F 88.8 °F 69.1 °F 59% 29.94 in 10.0 mi Calm Calm - N/A   Scattered Clouds
12:53 PM 87.1 °F 92.0 °F 70.0 °F 57% 29.93 in 10.0 mi Calm Calm - N/A   Partly Cloudy
1:53 PM 90.0 °F 95.4 °F 70.0 °F 52% 29.91 in 10.0 mi Variable 3.5 mph - N/A   Scattered Clouds
2:53 PM 91.0 °F 94.3 °F 66.9 °F 45% 29.88 in 10.0 mi Calm Calm - N/A   Mostly Cloudy
3:53 PM 84.9 °F 88.8 °F 69.1 °F 59% 29.86 in 10.0 mi SE 8.1 mph - N/A   Mostly Cloudy
4:10 PM 75.2 °F - 71.6 °F 89% 29.91 in 1.2 mi Variable 4.6 mph - 0.03 in Rain Heavy Rain
4:18 PM 73.4 °F - 71.6 °F 94% 29.92 in 0.8 mi Variable 6.9 mph - 0.18 in Rain Heavy Rain
4:27 PM 73.4 °F - 69.8 °F 88% 29.92 in 1.2 mi Variable 6.9 mph - 0.29 in Rain Heavy Rain
4:53 PM 73.0 °F - 72.0 °F 96% 29.88 in 5.0 mi West 3.5 mph - 0.33 in Rain Light Rain
5:53 PM 75.9 °F - 73.0 °F 91% 29.85 in 9.0 mi Calm Calm - 0.00 in   Clear
6:53 PM 78.1 °F - 73.0 °F 84% 29.86 in 10.0 mi Calm Calm - N/A   Clear
7:53 PM 75.9 °F - 75.0 °F 97% 29.86 in 6.0 mi Calm Calm - N/A   Clear
8:53 PM 75.0 °F - 73.9 °F 96% 29.88 in 4.0 mi Calm Calm - N/A   Clear
9:19 PM 75.2 °F - 73.4 °F 94% 29.91 in 1.8 mi Calm Calm - N/A   Clear
9:53 PM 73.9 °F - 73.0 °F 97% 29.88 in 1.0 mi Calm Calm - N/A   Clear
10:48 PM 73.4 °F - 73.4 °F 100% 29.93 in 1.8 mi Calm Calm - N/A   Partly Cloudy
10:53 PM 73.0 °F - 73.0 °F 100% 29.89 in 1.5 mi Calm Calm - N/A   Scattered Clouds
11:23 PM 73.4 °F - 71.6 °F 94% 29.92 in 1.0 mi Calm Calm - N/A   Mist
11:30 PM 73.4 °F - 71.6 °F 94% 29.92 in 0.8 mi Calm Calm - N/A   Mist
11:45 PM 73.4 °F - 71.6 °F 94% 29.93 in 1.0 mi Calm Calm - N/A   Mist
11:53 PM 73.0 °F - 72.0 °F 96% 29.89 in 0.8 mi Calm Calm - N/A   Mist